Content
SEND FEEDBACK

Daily
Averages
Monthly
Summary
Mexico

PUEBLA, PUEBLA


Home > North America > Mexico > Puebla
Elevation: 7104 feet     Latitude: 19 02N     Longitude: 098 12W

WEATHER
 
SELECT A DAY
Number of Records: 125,466;   Date Range: 1/1/95 - 12/19/14
 
SHARE

PRINT THIS DATA

[ ← Previous Day ]
WEATHER ALMANAC - MARCH 17, 2013
[ Next Day → ]
[ °C ]   °F
Weather ElementAverageHighLow
Temperature57.2 °F69.8 °F (3:47 pm)42.8 °F (4:46 am)
Dewpoint37.5 °F46.4 °F (12:40 pm)19.4 °F (8:40 pm)
Humidity51.4 %95 % (5:45 am)13 % (5:50 pm)
Barometer30.17 in30.34 in (9:41 am)29.77 in (5:50 pm)
Wind Speed9.1 mph25.3 mph (5:41 pm)
Wind Gust34.5 mph (3:47 pm)
Weather ElementAverage
Visibility7.7 mi
Wind DirectionSSW (197 °)

Weather ElementTotal
Precipitation---
Heating Degree Days8.7 (Base 65)
Growing Degree Days6.3 (Base 50)
Averaged from 25 records on March 17, 2013
WEATHER CONDITIONS BREAKOUT
WIND DIRECTION BREAKOUT
WEATHER BY HOUR - MARCH 17, 2013
[ °C ]   °F
Local TimeTemperatureDewpointHumidityBarometerVisibilityWind DirectionWind SpeedGust SpeedPrecipitationEventsConditions
4:46 AM42.8 °F41.0 °F93 %30.27 in4.0 miSSW (200°)2.3 mphOvercast
5:43 AM42.8 °F41.0 °F93 %30.28 in4.0 miNorth (360°)2.3 mphOvercast
5:45 AM43.0 °F42.0 °F95 %29.89 in3.0 miCalmScattered Clouds
6:44 AM42.8 °F41.0 °F93 %30.30 in4.0 miCalmOvercast
7:42 AM44.6 °F41.0 °F87 %30.32 in4.0 miNW (320°)2.3 mphMostly Cloudy
8:40 AM50.0 °F44.6 °F82 %30.33 in5.0 miNNW (340°)5.8 mphScattered Clouds
8:50 AM54.0 °F46.0 °F65 %30.08 in12.0 miCalmScattered Clouds
9:41 AM51.8 °F42.8 °F71 %30.34 in5.0 miCalmScattered Clouds
10:40 AM57.2 °F44.6 °F63 %30.32 in6.0 miSSW (200°)4.6 mphMostly Cloudy
11:42 AM62.6 °F44.6 °F52 %30.29 in7.0 miSSE (150°)5.8 mphMostly Cloudy
11:50 AM64.0 °F43.0 °F34 %30.02 in12.0 miWest (270°)4.5 mphPartly Cloudy
12:40 PM62.6 °F46.4 °F55 %30.26 in8.0 miSouth (180°)11.5 mphMostly Cloudy
1:41 PM66.2 °F41.0 °F40 %30.22 in9.0 miSouth (170°)16.1 mph27.6 mphMostly Cloudy
2:40 PM68.0 °F32.0 °F26 %30.20 in11.0 miSSW (200°)19.6 mph31.1 mphMostly Cloudy
3:47 PM69.8 °F26.6 °F20 %30.17 in11.0 miSouth (190°)20.7 mph34.5 mphMostly Cloudy
4:41 PM64.4 °F33.8 °F32 %30.17 in11.0 miSouth (190°)23.0 mph34.5 mphMostly Cloudy
5:41 PM64.4 °F35.6 °F34 %30.18 in11.0 miSSW (210°)25.3 mphMostly Cloudy
5:50 PM66.0 °F27.0 °F13 %29.77 in9.0 miSouth (180°)13.4 mphHaze
6:43 PM59.0 °F41.0 °F51 %30.20 in11.0 miSouth (190°)21.9 mphMostly Cloudy
7:43 PM59.0 °F32.0 °F36 %30.22 in10.0 miSouth (190°)12.7 mphMostly Cloudy
8:40 PM60.8 °F19.4 °F20 %30.25 in10.0 miSSW (210°)12.7 mphMostly Cloudy
8:45 PM60.0 °F33.0 °F24 %29.77 in3.0 miSE (140°)2.2 mphHaze
9:42 PM59.0 °F28.4 °F31 %30.27 in10.0 miSSW (200°)11.5 mphMostly Cloudy
10:43 PM55.4 °F39.2 °F54 %30.28 in10.0 miWest (260°)6.9 mphMostly Cloudy
11:45 PM60.0 °F31.0 °F22 %29.80 in3.0 miSouth (180°)2.2 mphPartly Cloudy
Hourly data recorded from MMPB, located miles away from Puebla, Puebla







STORIES FROM OUR PARTNERS